Middleton, WI

9:27 PM CDT on June 27, 2017 (GMT -0500)
Middleton

Weather History for KC29 - February, 2013

Change the Weather History Date:

Thursday, February 14, 2013

  Actual Average (KMSN) Record (KMSN)
Temperature  
Mean Temperature 34 °F -  
Max Temperature 37 °F 30 °F 55 °F (1954)
Min Temperature 28 °F 12 °F -13 °F (1951)
Degree Days  
Heating Degree Days 32    
Moisture  
Dew Point 26 °F    
Average Humidity 73    
Maximum Humidity 93    
Minimum Humidity 56    
Precipitation  
Precipitation 0.00 in - - ()
Sea Level Pressure  
Sea Level Pressure 29.75 in    
Wind  
Wind Speed 9 mph (WNW)    
Max Wind Speed 22 mph    
Max Gust Speed 31 mph    
Visibility 9 miles    
Events      
Averages and records for this station are not official NWS values.
T = Trace of Precipitation, MM = Missing Value Source: NWS Daily Summary

Daily Weather History Graph

Daily Weather History Graph

Search for Another Location

Airport or City:

Trip Planner

Search our weather history database for the weather conditions in past years. The results will help you decide how hot, cold, wet, or windy it might be!

Date:

Astronomy

Feb. 14, 2013 Rise Set
Actual Time 6:56 AM CST 5:28 PM CST
Civil Twilight 6:27 AM CST 5:57 PM CST
Nautical Twilight 5:54 AM CST 6:30 PM CST
Astronomical Twilight 5:21 AM CST 7:03 PM CST
Moon 8:49 AM CST (2/14) 10:41 PM CST (2/14)
Length of Visible Light 11h 29m
Length of Day
10h 31m
Waxing Crescent, 22% of the Moon is Illuminated
Feb 14
Waxing Crescent
Feb 17
First Quarter
Feb 25
Full
Mar 4
Last Quarter
Mar 11
New

Hourly Weather History & Observations

Time (CST) Temp. Windchill Dew Point Humidity Pressure Visibility Wind Dir Wind Speed Gust Speed Precip Events Conditions
12:15 AM 35.8 °F 33.0 °F 30.9 °F 82% 29.64 in 10.0 mi South 3.5 mph - N/A   Overcast
12:35 AM 35.8 °F 31.9 °F 31.1 °F 83% 29.63 in 10.0 mi South 4.6 mph - N/A   Overcast
12:55 AM 36.0 °F 33.3 °F 31.5 °F 84% 29.62 in 10.0 mi South 3.5 mph - N/A   Overcast
1:15 AM 36.1 °F 29.9 °F 31.6 °F 84% 29.60 in 10.0 mi South 8.1 mph - N/A   Overcast
1:35 AM 36.7 °F 32.0 °F 31.8 °F 83% 29.60 in 10.0 mi South 5.8 mph - N/A   Overcast
1:55 AM 36.7 °F 32.9 °F 32.0 °F 83% 29.58 in 10.0 mi South 4.6 mph - N/A   Overcast
2:15 AM 36.9 °F 31.4 °F 32.0 °F 83% 29.58 in 10.0 mi SSW 6.9 mph - N/A   Overcast
2:35 AM 37.0 °F 32.4 °F 31.6 °F 81% 29.57 in 10.0 mi SSW 5.8 mph - N/A   Overcast
2:55 AM 36.5 °F 30.3 °F 31.5 °F 82% 29.56 in 10.0 mi SSW 8.1 mph - N/A   Mostly Cloudy
3:15 AM 36.5 °F 31.0 °F 31.1 °F 81% 29.56 in 10.0 mi South 6.9 mph - N/A   Scattered Clouds
3:35 AM 36.0 °F 30.3 °F 30.9 °F 82% 29.55 in 10.0 mi SSW 6.9 mph - N/A   Mostly Cloudy
3:55 AM 35.8 °F 33.0 °F 30.4 °F 81% 29.55 in 10.0 mi South 3.5 mph - N/A   Scattered Clouds
4:15 AM 36.0 °F 33.3 °F 30.0 °F 79% 29.55 in 10.0 mi SSW 3.5 mph - N/A   Clear
4:35 AM 36.3 °F 32.5 °F 29.7 °F 77% 29.55 in 10.0 mi SW 4.6 mph - N/A   Mostly Cloudy
4:55 AM 36.5 °F 31.8 °F 29.7 °F 76% 29.55 in 10.0 mi SW 5.8 mph - N/A   Overcast
5:55 AM 36.5 °F 29.2 °F 30.7 °F 80% 29.56 in 10.0 mi West 10.4 mph - N/A   Overcast
6:15 AM 36.5 °F 29.2 °F 31.3 °F 81% 29.56 in 10.0 mi West 10.4 mph - N/A   Overcast
6:35 AM 36.5 °F 29.7 °F 31.6 °F 83% 29.57 in 10.0 mi West 9.2 mph - N/A   Overcast
6:55 AM 36.5 °F 29.7 °F 32.0 °F 84% 29.57 in 10.0 mi West 9.2 mph - N/A   Overcast
7:15 AM 36.3 °F 29.5 °F 32.0 °F 84% 29.58 in 5.0 mi West 9.2 mph - N/A   Overcast
7:35 AM 36.0 °F 29.6 °F 33.3 °F 90% 29.59 in 7.0 mi WSW 8.1 mph - N/A   Overcast
7:55 AM 36.1 °F 28.7 °F 33.8 °F 91% 29.60 in 10.0 mi West 10.4 mph - N/A   Overcast
8:15 AM 36.5 °F 29.7 °F 33.4 °F 89% 29.60 in 5.0 mi West 9.2 mph - N/A   Overcast
8:35 AM 36.0 °F 28.5 °F 34.0 °F 93% 29.61 in 2.0 mi West 10.4 mph - N/A   Overcast
8:55 AM 35.8 °F 27.3 °F 34.0 °F 93% 29.61 in 3.0 mi West 12.7 mph - N/A   Overcast
9:15 AM 35.6 °F 26.2 °F 33.8 °F 93% 29.62 in 4.0 mi West 15.0 mph 18.4 mph N/A   Overcast
9:35 AM 35.6 °F 26.2 °F 33.6 °F 92% 29.64 in 7.0 mi WNW 15.0 mph 21.9 mph N/A   Overcast
9:55 AM 34.9 °F 23.6 °F 32.0 °F 89% 29.65 in 7.0 mi NW 20.7 mph - N/A   Overcast
10:15 AM 34.7 °F 24.3 °F 31.6 °F 89% 29.66 in 7.0 mi NW 17.3 mph 20.7 mph N/A   Overcast
10:35 AM 34.2 °F 22.3 °F 29.8 °F 84% 29.68 in 10.0 mi NW 21.9 mph 28.8 mph N/A   Overcast
10:55 AM 34.3 °F 23.9 °F 28.2 °F 78% 29.69 in 10.0 mi NNW 17.3 mph 31.1 mph N/A   Overcast
11:15 AM 34.9 °F 24.9 °F 27.9 °F 76% 29.70 in 10.0 mi NW 16.1 mph 23.0 mph N/A   Overcast
11:35 AM 35.1 °F 23.8 °F 27.0 °F 72% 29.71 in 10.0 mi NW 20.7 mph 24.2 mph N/A   Overcast
11:55 AM 35.1 °F 23.8 °F 26.2 °F 70% 29.72 in 10.0 mi WNW 20.7 mph 26.5 mph N/A   Overcast
12:15 PM 36.5 °F 25.7 °F 24.8 °F 63% 29.73 in 10.0 mi NW 20.7 mph 26.5 mph N/A   Overcast
12:35 PM 36.5 °F 26.3 °F 24.6 °F 62% 29.73 in 10.0 mi NW 18.4 mph 23.0 mph N/A   Scattered Clouds
12:55 PM 36.0 °F 25.3 °F 24.1 °F 62% 29.75 in 10.0 mi NW 19.6 mph 24.2 mph N/A   Mostly Cloudy
1:15 PM 35.6 °F 25.5 °F 21.2 °F 56% 29.76 in 10.0 mi NW 17.3 mph 31.1 mph N/A   Overcast
1:35 PM 34.9 °F 24.6 °F 21.9 °F 59% 29.77 in 10.0 mi NW 17.3 mph 23.0 mph N/A   Overcast
1:55 PM 34.7 °F 24.3 °F 21.2 °F 58% 29.78 in 10.0 mi WNW 17.3 mph 20.7 mph N/A   Overcast
2:15 PM 34.7 °F 25.5 °F 22.3 °F 61% 29.78 in 10.0 mi NW 13.8 mph 23.0 mph N/A   Overcast
2:35 PM 34.9 °F 24.9 °F 21.4 °F 58% 29.79 in 10.0 mi NW 16.1 mph 24.2 mph N/A   Overcast
2:55 PM 34.7 °F 25.9 °F 20.8 °F 57% 29.80 in 10.0 mi NW 12.7 mph 23.0 mph N/A   Overcast
3:15 PM 34.7 °F 24.0 °F 21.2 °F 58% 29.82 in 10.0 mi NW 18.4 mph 25.3 mph N/A   Overcast
3:35 PM 34.7 °F 25.5 °F 21.2 °F 58% 29.83 in 10.0 mi NW 13.8 mph 20.7 mph N/A   Overcast
3:55 PM 34.7 °F 24.0 °F 20.5 °F 56% 29.83 in 10.0 mi WNW 18.4 mph 26.5 mph N/A   Overcast
4:15 PM 34.5 °F 24.8 °F 20.7 °F 57% 29.85 in 10.0 mi NW 15.0 mph 24.2 mph N/A   Overcast
4:35 PM 34.2 °F 24.8 °F 20.1 °F 57% 29.86 in 10.0 mi NW 13.8 mph 20.7 mph N/A   Overcast
4:55 PM 33.8 °F 25.3 °F 21.0 °F 60% 29.87 in 10.0 mi NW 11.5 mph 18.4 mph N/A   Overcast
5:15 PM 33.3 °F 25.1 °F 21.0 °F 61% 29.88 in 10.0 mi NW 10.4 mph - N/A   Overcast
5:35 PM 32.5 °F 25.5 °F 21.0 °F 63% 29.89 in 10.0 mi NW 8.1 mph - N/A   Scattered Clouds
5:55 PM 32.5 °F 26.2 °F 20.7 °F 62% 29.90 in 10.0 mi NW 6.9 mph - N/A   Scattered Clouds
6:15 PM 32.0 °F 26.4 °F 21.9 °F 66% 29.91 in 10.0 mi NW 5.8 mph - N/A   Mostly Cloudy
6:35 PM 32.0 °F 26.4 °F 21.9 °F 66% 29.91 in 10.0 mi NW 5.8 mph - N/A   Overcast
6:55 PM 32.0 °F 26.4 °F 21.9 °F 66% 29.92 in 10.0 mi NW 5.8 mph - N/A   Overcast
7:15 PM 32.0 °F 26.4 °F 21.6 °F 65% 29.93 in 10.0 mi WNW 5.8 mph - N/A   Overcast
7:35 PM 32.0 °F 26.4 °F 21.9 °F 66% 29.93 in 10.0 mi West 5.8 mph - N/A   Overcast
7:55 PM 31.3 °F 25.6 °F 21.2 °F 66% 29.93 in 10.0 mi West 5.8 mph - N/A   Mostly Cloudy
8:15 PM 31.1 °F 25.4 °F 20.7 °F 65% 29.93 in 10.0 mi WNW 5.8 mph - N/A   Mostly Cloudy
8:35 PM 30.9 °F 24.3 °F 20.3 °F 65% 29.94 in 10.0 mi West 6.9 mph - N/A   Mostly Cloudy
8:55 PM 30.2 °F 23.4 °F 20.3 °F 67% 29.94 in 10.0 mi WNW 6.9 mph - N/A   Mostly Cloudy
9:15 PM 30.7 °F 26.0 °F 21.2 °F 68% 29.94 in 10.0 mi West 4.6 mph - N/A   Overcast
9:35 PM 31.1 °F 24.5 °F 22.8 °F 71% 29.95 in 10.0 mi NW 6.9 mph - N/A   Overcast
9:55 PM 31.8 °F 21.4 °F 22.8 °F 69% 29.95 in 10.0 mi NNW 15.0 mph 21.9 mph N/A   Overcast
10:15 PM 30.7 °F 21.4 °F 23.2 °F 74% 29.96 in 10.0 mi NW 11.5 mph - N/A   Overcast
10:35 PM 30.2 °F 21.9 °F 22.5 °F 73% 29.97 in 10.0 mi NW 9.2 mph - N/A   Overcast
10:55 PM 30.6 °F 20.7 °F 20.7 °F 67% 29.97 in 10.0 mi NNW 12.7 mph - N/A   Overcast
11:15 PM 30.2 °F 20.8 °F 21.2 °F 69% 29.97 in 10.0 mi NNW 11.5 mph - N/A   Overcast
11:35 PM 30.0 °F 19.1 °F 21.4 °F 70% 29.98 in 10.0 mi NNW 15.0 mph - N/A   Overcast
11:55 PM 28.9 °F 17.7 °F 20.7 °F 71% 29.99 in 10.0 mi North 15.0 mph - N/A   Overcast